Location: Township of South Roscoe
(37.9570°N, 100.1180°W)
Time: 14:52:54
(UTC+00:00)

Envisat - Pass Details

Date: 17 October 2021
Orbit: 764 x 766 km, 98.2° (Epoch: 04 December)

Event Time Altitude Azimuth Distance (km) Brightness Sun altitude
Rises 12:00:33 0° 9° (N) 3,240 6.3 -10.7°
Reaches altitude 10° 12:02:53 10° 7° (N) 2,309 5.5 -10.3°
Maximum altitude 12:07:55 67° 286° (WNW) 827 3.0 -9.3°
Drops below altitude 10° 12:12:56 10° 204° (SSW) 2,293 5.3 -8.3°
Sets 12:15:14 0° 201° (SSW) 3,214 6.1 -7.9°
